Other Public Products
Issued by NWS Grand Forks, ND

Home | Current Version | Previous Version | Graphics & Text | Print | Product List | Glossary On
Versions: 1 2 3 4 5 6 7 8 9 10 11 12 13 14 15 16 17 18 19 20 21 22 23 24 25 26 27 28 29 30 31 32 33 34 35 36 37 38 39 40 41 42 43 44 45 46 47 48 49 50
000
FPUS83 KFGF 020331
OPUFGF
PRAIRIE TO PINES WEATHER ROUNDUP
NATIONAL WEATHER SERVICE EASTERN NORTH DAKOTA/GRAND FORKS ND
1000 PM CDT SAT AUG 01 2015

 **SATELLITE DATA USED TO AUGMENT SKY COVER AT AUTOMATED STATIONS**
 *****  WEATHER ACROSS EASTERN NORTH DAKOTA  *****

CITY           SKY/WX    TMP DP  RH WIND       PRES   REMARKS
GRAND FORKS    MOCLDY    72  62  71 S7        29.68S
GRAND FORKS AF NOT AVBL
GRAND CITY NWS NOT AVBL
BUXTON         NOT AVBL
DEVILS LAKE    CLEAR     73  61  64 SE3       29.68S
FARGO          CLEAR     73  64  73 SE3       29.71S
WAHPETON ARPT  CLEAR     73  68  83 E5        29.72S
$$

 *****  WEATHER ACROSS CENTRAL AND WESTERN NORTH DAKOTA  *****

CITY           SKY/WX    TMP DP  RH WIND       PRES   REMARKS
JAMESTOWN      CLEAR     72  66  81 SE6       29.71F
BISMARCK       CLEAR     72  58  61 S6        29.71F
MINOT          CLEAR     76  56  49 SE3       29.67F
MINOT AFB      CLEAR     72  59  64 CALM      29.67S
GARRISON         N/A     68  62  81 SW10      29.71R
WILLISTON      CLEAR     79  53  40 N17G28    29.80R
DICKINSON      CLEAR     72  43  35 NW8       29.80R
HETTINGER      CLEAR     70  48  45 NW7       29.85R
$$

 *****  OTHER OBSERVATIONS NORTHEAST NORTH DAKOTA  *****

CITY           SKY/WX    TMP DP  RH WIND       PRES   REMARKS
WALHALLA       FAIR      75  59  57 MISG      29.65F
LANGDON        FAIR      66  63  88 SE6       29.71F
CAVALIER       FAIR      73  64  73 SW9       29.65F
GRAFTON        FAIR      70  63  78 SW5       29.68F
CANDO          MOCLDY    70  63  78 SE8       29.69F
FORT TOTTEN      N/A     74  59  58 SE6       29.95S
ROLLA          FAIR      64  63  94 N9        29.75R
RUGBY          NOT AVBL
 ***** THE ABOVE OBSERVATIONS ARE NON NWS ARE NOT QUALITY
        CONTROLLED AND MAY MIS-REPORT RAIN FOR SNOW...
$$

 *****  OTHER OBSERVATIONS SOUTHEAST NORTH DAKOTA *****

CITY           SKY/WX    TMP DP  RH WIND       PRES   REMARKS
COOPERSTOWN    NOT AVBL
VALLEY CITY    FAIR      73  72  94 S7        29.73F
OAKES            N/A     72  72 100 CALM      29.74S
GWINNER          N/A     72  72 100 CALM      29.74R
SHEYENNE NWR     N/A     73  70  91 CALM      29.95S
BUFFALO        NOT AVBL
WYNDMERE         N/A     72  68  88 S1          N/A
 ***** THE ABOVE OBSERVATIONS ARE NON NWS ARE NOT QUALITY
       CONTROLLED AND MAY MIS-REPORT RAIN FOR SNOW...
$$

  *****  WEATHER ACROSS NORTHERN MINNESOTA  *****

CITY           SKY/WX    TMP DP  RH WIND       PRES   REMARKS
FLAG ISLAND    MOCLDY    72  59  64 SW3       29.65F
WARROAD        MOCLDY    70  63  78 SW3       29.68F
ROSEAU         MOCLDY    66  61  82 SW6       29.68S
HALLOCK        PTCLDY    72  61  68 SW9       29.65F
THF RVR FALLS  PTCLDY    70  63  78 S3        29.71F
HALSTAD        NOT AVBL
FOSSTON        PTCLDY    63  55  77 CALM      29.75R
BAUDETTE       MOCLDY    67  58  72 CALM      29.69F
WASKISH        PTCLDY    70  61  73 S5        29.71F
CROOKSTON      CLEAR     66  61  82 S5        29.70F
$$
  *****  WEATHER ACROSS CENTRAL AND WEST MINNESOTA  *****

CITY           SKY/WX    TMP DP  RH WIND       PRES   REMARKS
BEMIDJI        PTCLDY    69  60  71 S3        29.74S
PARK RAPIDS    CLEAR     73  60  63 CALM      29.75F
WADENA         CLEAR     68  63  83 CALM      29.75F
DETROIT LAKES  CLEAR     72  63  73 CALM      29.76S
MOORHEAD       CLEAR     73  66  78 CALM      29.73R
FERGUS FALLS   CLEAR     75  68  78 E3        29.72S
ELBOW LAKE     FAIR      71  68  92 S6        29.74S
MORRIS MN      CLEAR     70  66  88 S5        29.74S
STAPLES        CLEAR     73  63  68 CALM      29.75F
WHEATON        LGT RAIN  70  64  83 S6        29.74S
$$
  *****  WEATHER ELSEWHERE ACROSS MINNESOTA  *****

CITY           SKY/WX    TMP DP  RH WIND       PRES   REMARKS
DULUTH         PTCLDY    69  57  65 SW9       29.76S
INTRNTL FALLS  PTCLDY    59  56  89 CALM      29.69F
ELY            CLEAR     64  54  68 CALM      29.73S
CLOQUET        CLEAR     70  57  64 SW6       29.76S
BRAINERD       CLEAR     68  62  81 S5        29.76F
HIBBING        PTCLDY    61  56  83 CALM      29.74F
ALEXANDRIA     CLEAR     76  67  73 S7        29.77S
SAINT CLOUD    CLEAR     71  68  90 S6        29.76S
MINNEAPOLIS    PTCLDY    80  67  64 S8        29.78S
$$

  *****  WEATHER ACROSS SOUTH DAKOTA  *****

CITY           SKY/WX    TMP DP  RH WIND       PRES   REMARKS
SIOUX FALLS    PTCLDY    76  67  73 S13       29.84S
BROOKINGS      MOCLDY    73  63  68 S10       29.83S
WATERTOWN      CLEAR     74  65  73 S12       29.78S
HURON          CLEAR     78  63  59 SW8       29.78R
SISSETON         N/A     71  67  87 SE5       29.71S
ABERDEEN       CLEAR     71  66  84 SW6       29.75R
MITCHELL       CLEAR     78  64  61 SW8       29.81R
PIERRE         CLEAR     77  57  50 SW6       29.80S
MOBRIDGE       CLEAR     73  57  57 SE6       29.75S
RAPID CITY     CLEAR     74  57  55 S7        29.92R
$$

  *****  SOME WEATHER IN NEARBY STATES *****

CITY           SKY/WX    TMP DP  RH WIND       PRES   REMARKS
GLASGOW MT     CLEAR     78  54  43 NE13      29.82R
GREAT FALLS MT CLEAR     75  33  21 W7        29.90S
CHEYENNE WY    MOCLDY    75  47  36 E9G17     30.15R
SCOTTSBLUFF NE PTCLDY    71  58  63 MISG      30.02R
OMAHA NE       PTCLDY    76  71  85 SE8       29.90R
DES MOINES IA  PTCLDY    79  71  76 S6        29.90R
DAVENPORT IA   PTCLDY    74  67  78 SW6       29.92S
CHICAGO IL     PTCLDY    77  63  61 SW8       29.90S
EAU CLAIRE WI  CLEAR     69  62  78 CALM      29.81R
LA CROSSE WI   CLEAR     77  67  71 S7        29.82S
$$

  *****  SOME NATIONAL WEATHER *****

CITY           SKY/WX    TMP DP  RH WIND       PRES   REMARKS
LA GUARDIA NY  PTCLDY    80  57  45 NW6       29.84S
RALEIGH NC     PTCLDY    73  64  73 CALM      29.92S
ATLANTA GA     PTCLDY    82  62  50 CALM      29.97R
NEW ORLEANS LA PTCLDY    85  63  47 N3        29.88S
OKLAHOMA CITY  PTCLDY    76  69  79 S5        29.99R
ALBUQUERQUE NM HVY RAIN  66  62  87 W22       30.20R FOG
SALT LAKE CITY MOCLDY    85  34  16 W6        29.98S
LOS ANGELES CA PTCLDY    70  64  83 SW10      29.90S
BOISE ID       CLEAR     96  38  13 N3        29.86F HX  91
SEATTLE WA     PTCLDY    84  45  25 N12       29.91F
$$

*** WEATHER ACROSS MANITOBA...SASKATCHEWAN AND ONTARIO ***
                ***ONTARIO***

CITY           SKY/WX    TMP DP  RH WIND       PRES   REMARKS
GERALDTON      PTCLDY    55  55 100 W8        29.64F
THUNDER BAY    MOCLDY    64  57  77 N2        29.67S
SIOUX LOOKOUT  MOCLDY    61  59  94 NW5       29.66F
TORONTO        CLEAR     70  54  56 W8        29.85S
BIG TROUT LK   CLOUDY    54  50  87 NW9G17    29.48F
PICKLE LAKE    NOT AVBL
DRYDEN         TSTM      64  57  77 W5        29.66F
KENORA         TSTM      66  61  82 N5        29.68F
$$
                *** MANITOBA***

CITY           SKY/WX    TMP DP  RH WIND       PRES   REMARKS
BRANDON        MOCLDY    64  61  88 NW6       29.75R THUNDER
DAUPHIN        MOCLDY    64  61  88 N6        29.74R
ISLAND LAKE    MOCLDY    61  52  72 N8        29.61S
PILOT MOUND      N/A     68  61  77 NW7         N/A
THE PAS        PTCLDY    66  48  52 NW8       29.74R
THOMPSON       LGT RAIN  55  48  76 N8        29.66S
WINNIPEG       MOCLDY    68  63  83 N9        29.68R
LYNN LAKE      LGT RAIN  55  46  71 N16G23    29.76R
CHURCHILL      LGT RAIN  46  45  93 N20G26    29.53S
GILLAM         CLOUDY    52  48  87 NW15G22   29.55
$$
                ***SASKATCHEWAN***

CITY           SKY/WX    TMP DP  RH WIND       PRES   REMARKS
ESTEVAN        PTCLDY    72  54  53 N16G24    29.81R
KINDERSLEY     PTCLDY    64  52  63 N10       29.95R
LLOYDMINSTER   MOCLDY    63  54  72 NW3       29.96R
PRINCE ALBERT  PTCLDY    61  54  77 N6        29.86R
REGINA         PTCLDY    63  55  77 NW9       29.87S



USA.gov is the U.S. government's official web portal to all federal, state and local government web resources and services.